Voltar ao catálogo

STARLINK-30862

AtivoComunicaçõesVLEO
NORAD 59032·PAYLOAD·🇺🇸 United States

Lançado Feb 25, 2024 de Cape Canaveral Space Force Station

Loading…

Próximas Passagens (próximas 24 horas)

TLE

AtualizadoSource: CelesTrak SupGP

Época: Sep 14, 2026, 22:18 UTC

1 59032C 24038K   26257.92965278  .00028856  00000+0  10450-2 0  2573
2 59032  43.0013  27.4502 0001738 275.1018 163.2891 15.27569028    11

Acompanhe STARLINK-30862 em tempo real com AllMySat

Download on the App Store